Regional Weather Roundup
Issued by NWS

Home | Current Version | Previous Version | Text Only | Print | Product List | Glossary Off
Versions: 1 2 3 4 5 6 7 8 9 10 11 12 13 14 15 16 17 18 19 20 21 22 23 24 25 26 27 28 29 30 31 32 33 34 35 36 37 38 39 40 41 42 43 44 45 46 47 48 49 50

000
ASUS43 KOAX 302110
RWRNE

WEATHER ROUNDUP FOR NEBRASKA
NATIONAL WEATHER SERVICE OMAHA NE
400 PM CDT SAT APR 30 2016

NOTES: SATELLITE DATA IS BEING USED TO AUGMENT CLOUD COVER ABOVE
       12000 FEET.
       "FAIR" INDICATES FEW OR NO CLOUDS BELOW 12,000 FEET WITH NO
       SIGNIFICANT WEATHER AND/OR OBSTRUCTIONS TO VISIBILITY.

  * THESE STATIONS DO NOT REPORT WEATHER SUCH AS RAIN...SNOW OR FOG.

NEZ001>004-019>022-054>056-302200-
NEBRASKA PANHANDLE

CITY           SKY/WX    TMP DP  RH WIND       PRES   REMARKS
SCOTTSBLUFF    LGT RAIN  38 N/A N/A N20G25    30.03R WCI  28
ALLIANCE       LGT SNOW  33  32  96 N18       29.98R VSB 3/4 WCI  22
CHADRON        LGT RAIN  44  33  65 N24G35    30.04R
KIMBALL        HVY RAIN  34  33  96 N22G28    29.99R VSB 1/2 WCI  22
SIDNEY         SNOW      34  32  92 N18       29.97R VSB 1/2 WCI  23
$$

NEZ057>060-069>072-079>082-302200-
SOUTHWEST NEBRASKA

CITY           SKY/WX    TMP DP  RH WIND       PRES   REMARKS
NORTH PLATTE   LGT RAIN  38  35  89 N23G29    29.86R WCI  27
IMPERIAL       LGT SNOW  35  33  92 N17       29.89R FOG     WCI  25
LEXINGTON      LGT RAIN  42  37  85 N17       29.83R
MCCOOK         CLOUDY    41  36  82 N14       29.84R
OGALLALA       LGT RAIN  36  34  92 N17G24    29.91R WCI  26
$$

NEZ005>010-023>029-035>040-094-302200-
NORTH CENTRAL NEBRASKA

CITY           SKY/WX    TMP DP  RH WIND       PRES   REMARKS
VALENTINE      LGT RAIN  40  36  86 NE23G31   29.94R WCI  30
AINSWORTH      LGT RAIN  35  34  97 N15       29.92R WCI  25
BROKEN BOW     LGT RAIN  40  38  93 N20       29.82S WCI  30
O`NEILL        DRIZZLE   43  41  95 NE14G22   29.86R
ORD            LGT RAIN  43  41  93 NE15      29.81R FOG
THEDFORD       CLOUDY    36  34  94 N14G21    29.90R WCI  27
$$

NEZ041-046>049-061>064-073>077-083>087-302200-
SOUTH CENTRAL NEBRASKA

CITY           SKY/WX    TMP DP  RH WIND       PRES   REMARKS
GRAND ISLAND   LGT RAIN  46  44  93 N12       29.79R FOG
AURORA         CLOUDY    47  46  97 NE6       29.77S FOG
HASTINGS       CLOUDY    47  43  86 N10       29.77S
HEBRON         CLOUDY    51  47  87 NW9       29.76S
HOLDREGE       LGT RAIN  44  40  86 N12       29.79S
KEARNEY *      CLOUDY    45  41  87 N14       29.79R
YORK           LGT RAIN  48  46  93 N9        29.77R
$$

NEZ011>018-030>034-042>045-302200-
NORTHEAST NEBRASKA

CITY           SKY/WX    TMP DP  RH WIND       PRES   REMARKS
NORFOLK        LGT RAIN  46  43  89 E15G21    29.80R FOG
ALBION         LGT RAIN  44  43  95 NE10      29.80S
BLAIR          DRIZZLE   49  47  96 NE13      29.76R
COLUMBUS *     CLOUDY    46  39  76 NE12      29.79R
FREMONT        CLOUDY    48  48  98 E9        29.77S FOG
TEKAMAH        CLOUDY    49  46  90 E12       29.79R
WAYNE          LGT RAIN  46  45  95 NE13      29.82R
$$

NEZ050>053-065>068-078-088>093-302200-
SOUTHEAST NEBRASKA

CITY           SKY/WX    TMP DP  RH WIND       PRES   REMARKS
LINCOLN        LGT RAIN  52  50  93 NE7       29.75S FOG
OMAHA EPPLEY   CLOUDY    50  48  93 E9        29.77R FOG
BEATRICE       CLOUDY    54  50  86 W12       29.74S
FALLS CITY     PTSUNNY   63  52  67 W12       29.73R
NEBRASKA CITY  DRIZZLE   54  54 100 NE7       29.73R
PLATTSMOUTH    CLOUDY    51  50  97 NE8       29.75R
$$

NEZ044-045-051>053-067-302200-
OMAHA AREA

CITY           SKY/WX    TMP DP  RH WIND       PRES   REMARKS
OMAHA EPPLEY   CLOUDY    50  48  93 E9        29.77R FOG
BLAIR          DRIZZLE   49  47  96 NE13      29.76R
FREMONT        CLOUDY    48  48  98 E9        29.77S FOG
MILLARD        CLOUDY    50  49  94 CALM      29.76R FOG
OFFUTT AFB     DRIZZLE   50  50 100 NE7       29.75R FOG
PLATTSMOUTH    CLOUDY    51  50  97 NE8       29.75R
WAHOO          RAIN      49  48  95 E9        29.76S
$$



USA.gov is the U.S. government's official web portal to all federal, state and local government web resources and services.